Regional Weather Roundup
Issued by NWS Midland/Odessa, TX

Skip options and go directly to product.
Home | Oldest Version | Next Version | Current Version | All | Text Only | Save Text | Print | Product List | Glossary On

Skip product version selection by date and time.   
016
ASUS44 KMAF 230402
RWRMAF
MIDLAND AREA WEATHER ROUNDUP
NATIONAL WEATHER SERVICE MIDLAND TX
1000 PM CST SAT NOV 22 2014

...IN SOUTHWEST TEXAS AND SOUTHEAST NEW MEXICO...

CITY           SKY/WX    TMP DP  RH WIND       PRES   REMARKS
ALPINE         CLEAR     53  35  49 W16       29.98F
ANDREWS        FAIR      55  32  41 W8        29.81R
ARTESIA        NOT AVBL
BIG SPRING     CLOUDY    56  54  93 SE13      29.80S VSB 3/4
CARLSBAD       CLEAR     60  26  27 W17       29.81S
DRYDEN           N/A     57  38  48 W9        29.81S
FORT STOCKTON  CLEAR     53  36  52 SW10      29.86R
GUAD PASS      NOT AVBL
HOBBS          CLEAR     52  25  35 W14       29.81F
MARFA          CLEAR     52  34  50 W12       29.99R
MIDLAND AIRPK  CLEAR     55  55 100 CALM      29.80S FOG
MIDLAND INTL   CLEAR     56  42  59 SW9       29.79F
ODESSA         CLEAR     55  35  47 W9        29.81S
PECOS          CLEAR     51  36  57 SW7       29.83S
PRESIDIO       FAIR      57  38  48 NW7       29.92R
SEMINOLE       CLEAR     52  31  44 W9        29.80S
SNYDER         CLOUDY    52  52  99 S9        29.78F FOG
WINK           CLEAR     53  33  46 W9        29.81R
$$
...OTHER STATIONS IN TEXAS...

CITY           SKY/WX    TMP DP  RH WIND       PRES   REMARKS
ABILENE        PTCLDY    52  50  93 SW6       29.75F
AMARILLO       CLEAR     43  28  55 S10       29.65F WCI  37
AUSTIN         TSTM      62  61  96 SW10      29.81R FOG
BROWNSVILLE    CLOUDY    74  70  87 W10       29.79R
CORPUS CHRISTI RAIN      64  61  90 SE3       29.74F
DALLAS FTW     CLOUDY    54  54 100 SW12      29.74F
DEL RIO        CLEAR     55  52  89 CALM      29.78S
EL PASO        CLEAR     61  18  18 W15       29.91F
HOUSTON INT    LGT RAIN  67  65  93 S12G20    29.80R FOG
LUBBOCK        CLEAR     48  46  93 S8        29.74F
SAN ANGELO     CLEAR     54  52  93 SE6       29.78F
SAN ANTONIO    CLOUDY    61  55  81 CALM      29.74F
WACO           LGT RAIN  58  56  93 N9        29.82S
WICHITA FALLS  NOT AVBL
$$
...OTHER LOCATIONS IN NEW MEXICO...

CITY           SKY/WX    TMP DP  RH WIND       PRES   REMARKS
ALAMAGORDO     PTCLDY    54  18  24 MISG      29.89F
ALBUQUERQUE    MOCLDY    42  15  33 SE8       29.88F WCI  37
CANNON AFB     CLEAR     57  16  19 W16       29.75S
CLOVIS         CLEAR     46  16  29 SW17      29.70F WCI  39
HOLLOMAN AFB   PTCLDY    47  19  31 SW7       29.87F
ROSWELL        CLEAR     49  23  36 SW10      29.77F
RUIDOSO        CLEAR     46  14  27 W12G17    29.88F
SANTA FE       PTCLDY    35  13  40 N5        29.88F WCI  31
TRUTH OR CONSE CLEAR     55  17  22 CALM      29.89F
TUCUMCARI        N/A     53  15  22 W13       29.63S
$$

USA.gov is the U.S. government's official web portal to all federal, state and local government web resources and services.